Fort Bragg, NC

6:07 PM EDT on September 19, 2017 (GMT -0400)
Simmons Army Air Field

Weather History for KFBG - March, 2013

Change the Weather History Date:

Friday, March 15, 2013

  Actual Average Record
Temperature  
Mean Temperature 46 °F -  
Max Temperature 64 °F 61 °F 83 °F (2012)
Min Temperature 30 °F 41 °F 25 °F (2017)
Degree Days  
Heating Degree Days 18    
Moisture  
Dew Point 27 °F    
Average Humidity 50    
Maximum Humidity 94    
Minimum Humidity 24    
Precipitation  
Precipitation 0.00 in - - ()
Sea Level Pressure  
Sea Level Pressure 30.09 in    
Wind  
Wind Speed 4 mph (SW)    
Max Wind Speed 15 mph    
Max Gust Speed 22 mph    
Visibility 10 miles    
Events      
Averages and records for this station are not official NWS values.
T = Trace of Precipitation, MM = Missing Value Source: NWS Daily Summary

Daily Weather History Graph

Daily Weather History Graph

Search for Another Location

Airport or City:

Trip Planner

Search our weather history database for the weather conditions in past years. The results will help you decide how hot, cold, wet, or windy it might be!

Date:

Astronomy

Mar. 15, 2013 Rise Set
Actual Time 7:26 AM EDT 7:23 PM EDT
Civil Twilight 7:00 AM EDT 7:48 PM EDT
Nautical Twilight 6:31 AM EDT 8:18 PM EDT
Astronomical Twilight 6:01 AM EDT 8:48 PM EDT
Moon 9:25 AM EDT (3/15) 11:25 PM EDT (3/15)
Length of Visible Light 12h 48m
Length of Day
11h 57m
Waxing Crescent, 15% of the Moon is Illuminated
Mar 15
Waxing Crescent
Mar 19
First Quarter
Mar 27
Full
Apr 3
Last Quarter
Apr 10
New

Hourly Weather History & Observations

Time (EDT) Temp. Windchill Dew Point Humidity Pressure Visibility Wind Dir Wind Speed Gust Speed Precip Events Conditions
12:58 AM 33.3 °F - 29.3 °F 85% 30.19 in 10.0 mi Calm Calm - N/A   Clear
1:58 AM 32.4 °F - 28.4 °F 85% 30.19 in 10.0 mi Calm Calm - N/A   Clear
2:58 AM 31.3 °F 27.9 °F 27.3 °F 85% 30.19 in 10.0 mi NW 3.5 mph - N/A   Clear
3:58 AM 31.1 °F - 26.6 °F 83% 30.17 in 10.0 mi NW 1.2 mph - N/A   Clear
4:58 AM 31.8 °F - 27.3 °F 83% 30.17 in 10.0 mi Calm Calm - N/A   Clear
5:58 AM 30.6 °F - 28.0 °F 90% 30.19 in 10.0 mi Calm Calm - N/A   Clear
6:58 AM 30.0 °F - 28.4 °F 94% 30.19 in 10.0 mi Calm Calm - N/A   Clear
7:58 AM 30.2 °F - 24.3 °F 79% 30.19 in 10.0 mi Calm Calm - N/A   Clear
8:58 AM 37.6 °F - 28.9 °F 71% 30.21 in 10.0 mi Calm Calm - N/A   Clear
9:58 AM 49.1 °F - 20.5 °F 32% 30.20 in 10.0 mi NNW 3.5 mph - N/A   Clear
10:58 AM 51.4 °F - 16.5 °F 25% 30.18 in 10.0 mi WSW 5.8 mph - N/A   Clear
11:58 AM 54.7 °F - 20.5 °F 26% 30.17 in 10.0 mi Variable 6.9 mph - N/A   Clear
12:58 PM 56.1 °F - 21.9 °F 27% 30.12 in 10.0 mi SW 10.4 mph - N/A   Clear
1:58 PM 59.2 °F - 23.7 °F 26% 30.08 in 10.0 mi WSW 15.0 mph - N/A   Clear
2:58 PM 61.7 °F - 24.8 °F 24% 30.04 in 10.0 mi SSW 10.4 mph - N/A   Clear
3:37 PM 62.6 °F - 26.6 °F 26% 30.01 in 10.0 mi SW 12.7 mph 19.6 mph N/A   Clear
3:58 PM 63.0 °F - 27.0 °F 26% 30.01 in 10.0 mi WSW 11.5 mph 21.9 mph N/A   Clear
4:58 PM 63.9 °F - 28.8 °F 27% 29.98 in 10.0 mi SW 13.8 mph - N/A   Clear
5:58 PM 63.5 °F - 30.0 °F 28% 29.96 in 10.0 mi SW 13.8 mph 19.6 mph N/A   Clear
6:58 PM 62.1 °F - 30.7 °F 31% 29.96 in 10.0 mi SSW 9.2 mph - N/A   Clear
7:58 PM 59.4 °F - 31.6 °F 35% 29.96 in 10.0 mi SSW 4.6 mph - N/A   Clear
8:58 PM 58.5 °F - 32.5 °F 38% 29.95 in 10.0 mi South 6.9 mph - N/A   Clear
9:58 PM 57.0 °F - 32.5 °F 40% 29.95 in 10.0 mi SSW 5.8 mph - N/A   Clear
10:58 PM 56.3 °F - 33.1 °F 41% 29.95 in 10.0 mi SSW 4.6 mph - N/A   Clear
11:58 PM 54.7 °F - 34.0 °F 46% 29.94 in 10.0 mi South 6.9 mph - N/A   Clear